CW9849 Weather Reports


Display with metric or nautical units.
time (UTC)temp
F
wind
direction
speed
MPH
gust
MPH
rain 1hr
in
rain 24hr
in
rain mn
in
humidity
%
barometer
mb
20260905220101 63 158 8.0 14.0 0.00 0.00 0.00 83 1024.7
20260905214549 63 142 6.0 14.0 0.00 0.00 0.00 83 1024.6
20260905213048 63 146 9.0 15.0 0.00 0.00 0.00 83 1024.8
20260905211547 63 152 8.0 13.0 0.00 0.00 0.00 84 1024.9
20260905210057 63 138 9.0 14.0 0.00 0.00 0.00 84 1025.1
20260905204553 63 160 7.0 12.0 0.00 0.00 0.00 84 1025.1
20260905203102 63 139 7.0 13.0 0.00 0.00 0.00 84 1025.2
20260905201545 63 131 8.0 12.0 0.00 0.00 0.00 84 1025.2
20260905200045 63 159 8.0 13.0 0.00 0.00 0.00 84 1025.1
20260905194546 63 193 7.0 12.0 0.00 0.00 0.00 84 1025.2
20260905193044 63 146 7.0 11.0 0.00 0.00 0.00 84 1025.2
20260905191543 63 174 8.0 12.0 0.00 0.00 0.00 83 1025.2
20260905190044 64 144 7.0 12.0 0.00 0.00 0.00 82 1025.4
20260905184546 64 146 5.0 10.0 0.00 0.00 0.00 81 1025.3
20260905183041 64 162 6.0 12.0 0.00 0.00 0.00 79 1025.1
20260905181540 64 154 6.0 12.0 0.00 0.00 0.00 78 1025.3
20260905180042 65 166 6.0 11.0 0.00 0.00 0.00 78 1025.4
20260905174539 65 144 6.0 11.0 0.00 0.00 0.00 77 1025.2
20260905173039 65 163 6.0 11.0 0.00 0.00 0.00 77 1025.2
20260905171548 66 156 6.0 12.0 0.00 0.00 0.00 75 1025.4
20260905170036 66 155 8.0 13.0 0.00 0.00 0.00 74 1025.3
20260905164543 67 164 7.0 14.0 0.00 0.00 0.00 72 1025.3
20260905163037 67 176 7.0 14.0 0.00 0.00 0.00 71 1025.6
20260905161534 68 153 8.0 12.0 0.00 0.00 0.00 69 1025.6
20260905160032 68 144 6.0 9.0 0.00 0.00 0.00 68 1025.6
20260905154534 68 146 5.0 10.0 0.00 0.00 0.00 67 1025.5
20260905153032 70 143 7.0 12.0 0.00 0.00 0.00 63 1025.8
20260905151529 71 172 8.0 13.0 0.00 0.00 0.00 62 1025.9
20260905150038 70 138 9.0 13.0 0.00 0.00 0.00 63 1026.1
20260905144533 70 176 9.0 13.0 0.00 0.00 0.00 64 1026.2
20260905143026 71 131 9.0 15.0 0.00 0.00 0.00 63 1026.3
20260905141524 71 156 8.0 13.0 0.00 0.00 0.00 63 1026.3
20260905140023 71 157 9.0 15.0 0.00 0.00 0.00 62 1026.5
20260905134525 71 158 9.0 14.0 0.00 0.00 0.00 61 1026.8
20260905133022 71 160 10.0 14.0 0.00 0.00 0.00 60 1027.0
20260905131532 71 148 10.0 14.0 0.00 0.00 0.00 59 1026.9
20260905130019 72 136 9.0 14.0 0.00 0.00 0.00 58 1027.0
20260905124519 72 147 8.0 12.0 0.00 0.00 0.00 57 1026.8
20260905123019 71 141 7.0 12.0 0.00 0.00 0.00 59 1026.9
20260905121516 71 136 8.0 13.0 0.00 0.00 0.00 58 1026.8
20260905120022 71 130 9.0 14.0 0.00 0.00 0.00 59 1026.9
20260905114518 71 151 9.0 13.0 0.00 0.00 0.00 59 1027.0
20260905113013 72 199 6.0 11.0 0.00 0.00 0.00 58 1027.0
20260905111518 73 156 6.0 11.0 0.00 0.00 0.00 58 1027.0
20260905110011 72 148 6.0 10.0 0.00 0.00 0.00 57 1026.9
20260905104517 72 150 6.0 10.0 0.00 0.00 0.00 57 1026.9
20260905103013 73 161 6.0 9.0 0.00 0.00 0.00 55 1026.9
20260905101506 72 138 4.0 8.0 0.00 0.00 0.00 56 1026.8
20260905100003 72 218 6.0 8.0 0.00 0.00 0.00 59 1026.6
20260905094717 70 194 2.0 4.0 0.00 0.00 0.00 60 1026.6
20260905093108 68 178 2.0 5.0 0.00 0.00 0.00 64 1026.4
20260905091557 67 297 2.0 5.0 0.00 0.00 0.00 62 1026.3
20260905090050 67 223 1.0 4.0 0.00 0.00 0.00 63 1026.4
20260905084601 67 190 2.0 4.0 0.00 0.00 0.00 65 1026.4
20260905083046 67 212 3.0 5.0 0.00 0.00 0.00 66 1026.4
20260905081542 66 195 2.0 4.0 0.00 0.00 0.00 71 1026.3
20260905080038 64 195 2.0 3.0 0.00 0.00 0.00 76 1026.3
20260905074535 63 231 1.0 3.0 0.00 0.00 0.00 76 1026.1
20260905073032 63 250 2.0 4.0 0.00 0.00 0.00 77 1026.0
20260905071527 60 222 2.0 3.0 0.00 0.00 0.00 82 1026.0
20260905070025 59 227 2.0 3.0 0.00 0.00 0.00 80 1025.8
20260905064523 59 236 2.0 3.0 0.00 0.00 0.00 78 1025.7
20260905063023 59 258 1.0 3.0 0.00 0.00 0.00 77 1025.7
20260905061527 59 297 2.0 4.0 0.00 0.00 0.00 75 1025.7
20260905060024 59 317 4.0 5.0 0.00 0.00 0.00 74 1025.4
20260905054521 59 307 4.0 7.0 0.00 0.02 0.00 73 1025.3
20260905053013 59 309 5.0 8.0 0.00 0.02 0.00 73 1025.1
20260905051526 59 315 5.0 8.0 0.00 0.02 0.00 74 1025.1
20260905050011 59 310 5.0 9.0 0.00 0.02 0.00 73 1025.0
20260905044609 59 298 5.0 10.0 0.00 0.02 0.00 73 1025.1
20260905043014 60 302 5.0 10.0 0.00 0.02 0.00 74 1025.1
20260905041508 60 284 8.0 12.0 0.00 0.02 0.00 73 1025.1
20260905040008 59 302 6.0 11.0 0.00 0.02 0.00 76 1024.9
20260905034506 59 304 5.0 10.0 0.00 0.02 0.00 78 1025.0
20260905033004 59 296 4.0 7.0 0.00 0.02 0.00 79 1025.0
20260905031504 60 288 5.0 8.0 0.00 0.02 0.00 81 1024.9
20260905030002 59 286 3.0 6.0 0.00 0.02 0.00 81 1024.8
20260905024612 59 295 2.0 4.0 0.00 0.02 0.00 80 1024.8
20260905023100 59 277 3.0 5.0 0.00 0.02 0.00 77 1024.7
20260905021608 59 311 4.0 7.0 0.00 0.02 0.00 76 1024.7
20260905020057 59 272 5.0 9.0 0.00 0.02 0.00 75 1024.7
20260905014555 59 302 4.0 8.0 0.00 0.02 0.00 75 1024.6
20260905013116 59 324 5.0 10.0 0.00 0.02 0.00 75 1024.6
20260905011552 59 310 5.0 9.0 0.00 0.02 0.00 75 1024.5
20260905010056 60 297 6.0 9.0 0.00 0.02 0.00 75 1024.4
20260905004548 60 309 5.0 10.0 0.00 0.02 0.00 78 1024.5
20260905003047 61 295 6.0 11.0 0.00 0.02 0.00 77 1024.5
20260905001546 60 311 6.0 11.0 0.00 0.02 0.00 76 1024.5
20260905000045 61 310 7.0 13.0 0.00 0.02 0.00 75 1024.2
20260904234543 61 298 8.0 12.0 0.00 0.02 0.00 75 1024.2
20260904233040 60 291 6.0 11.0 0.00 0.02 0.00 79 1024.2
20260904231536 61 303 6.0 10.0 0.00 0.02 0.00 79 1024.2
20260904230055 61 315 8.0 14.0 0.00 0.02 0.00 80 1024.1
20260904224534 61 288 6.0 10.0 0.00 0.02 0.02 79 1024.1
20260904223033 61 296 8.0 11.0 0.00 0.02 0.02 77 1024.1
20260904221531 60 281 8.0 12.0 0.00 0.02 0.02 77 1024.1